[[{"header":{"parameterUnit":"m.s-1","parameterCategory":1,"la1":30.2991,"la2":30.254,"lo1":-89.0895,"lo2":-89.0444,"dx":0.0017,"dy":0.0017,"nx":28,"ny":28,"refTime":"2022-11-26T09:00:00:Z","depth":0,"parameterNumber":2,"parameterNumberName":"U-component_of_WINDS"},"data":[0,0,0,0,0,0,0,0,0,0,0,0,0,0,0,0,0,0,0,0,0,0,0,0,0,0,0,0,0,0,0,0,0,0,0,0,0,0,0,0,0,0,0,0,0,0,0,0,0,0,0,0,0,0,0,0,0,0,6.6692,6.6693,0,6.6808,6.6809,6.6811,6.676,6.6757,6.6754,6.6752,6.6873,6.6879,6.6884,0,0,0,0,0,0,0,0,0,0,0,0,0,6.643,6.6435,6.6692,6.6694,6.6695,6.6808,6.6809,6.6811,6.6761,6.6757,6.6754,6.6751,6.6871,6.6878,6.6885,0,0,0,0,0,0,0,0,0,0,0,0,0,6.6545,6.6437,6.6692,6.6683,6.6684,6.6807,6.6809,6.6811,6.6761,6.6757,6.6753,6.6749,6.6869,6.6877,6.6886,6.7026,0,0,6.6913,6.6917,0,0,0,0,0,0,0,0,6.6539,6.6555,6.6683,6.6684,6.6685,6.6765,6.6761,6.6883,6.6762,6.6732,6.6752,6.6747,6.6841,6.6852,6.6883,6.7031,6.7036,6.6914,6.6919,6.6923,6.6925,0,0,0,0,0,0,0,6.6531,6.6549,6.6738,6.6685,6.6686,6.6675,6.6686,6.6784,6.6809,6.6734,6.6731,6.6745,6.684,6.6874,6.6885,6.7038,6.6913,6.6921,6.6927,6.693,6.7307,6.7312,0,0,0,0,0,0,6.6522,6.6543,6.6734,6.6741,6.66,6.6683,6.6696,6.6744,6.6808,6.6813,6.6749,6.6742,6.6861,6.6875,6.6889,6.7056,6.6923,6.6931,6.6936,6.7303,6.7308,6.7314,0,0,0,0,0,0,6.6517,6.654,6.673,6.6642,6.6665,6.6692,6.6746,6.6748,6.6782,6.6819,6.6823,6.6779,6.6859,6.6877,6.6992,6.706,6.6935,6.6943,6.7297,6.7304,6.7311,6.7392,0,0,0,0,0,0,6.651,6.6538,6.6591,6.6643,6.667,6.683,6.675,6.6754,6.6797,6.679,6.6848,6.6853,6.6857,6.6979,6.7001,6.707,6.695,6.7291,6.73,6.7309,6.7383,6.7401,6.7416,0,0,0,0,0,6.6501,6.661,6.6594,6.6617,6.6736,6.6834,6.6849,6.685,6.6803,6.6856,6.688,6.6851,6.7049,6.6991,6.7015,6.7088,6.7287,6.7298,6.7308,6.7376,6.7398,6.7416,0,0,0,0,0,0,6.6565,6.6616,6.6599,6.6728,6.6777,6.6825,6.6892,6.6873,6.6936,6.6927,6.6926,6.694,6.7059,6.7085,6.7019,6.7227,6.7161,6.7177,6.7205,6.7225,6.7241,6.7232,6.6957,0,0,0,0,0,6.6594,6.6669,6.671,6.682,6.6845,6.6865,6.6907,6.6904,6.6955,6.6975,6.7007,6.7058,6.7132,6.718,6.725,6.7388,6.74,6.745,6.7466,6.7479,6.7493,6.7568,6.759,6.7349,6.7348,6.7348,0,0,6.6655,6.6693,6.674,6.6834,6.6871,6.6949,6.6882,6.6967,6.7025,6.6988,6.7098,6.7124,6.7181,6.7308,6.7365,6.7334,6.7563,6.7493,6.7503,6.751,6.7581,6.7604,6.7624,6.7356,6.7354,6.7353,0,0,6.6806,6.6842,6.6937,6.6976,6.7033,6.7046,6.7069,6.712,6.7136,6.7246,6.722,6.729,6.7417,6.7458,6.7496,6.7665,6.7641,6.7688,6.7773,6.7845,6.7864,6.7881,6.7941,6.7962,6.7701,6.7701,6.7702,0,6.6875,6.699,6.6989,6.7076,6.7118,6.7088,6.7185,6.7223,6.7301,6.7331,6.7295,6.7453,6.749,6.7626,6.7667,6.7699,6.7726,6.768,6.7862,6.7879,6.7894,6.7951,6.7973,6.7707,6.7706,6.7705,6.7705,0,6.7072,6.7152,6.7223,6.7297,6.7348,6.744,6.7453,6.7505,6.7498,6.7514,6.7628,6.7671,6.7749,6.7781,6.7775,6.7917,6.7895,6.7861,6.7794,6.7923,6.7976,6.7997,6.7714,6.7712,6.7711,6.7709,0,0,6.7265,6.7338,6.7364,6.7397,6.7459,6.7522,6.7613,6.7688,6.7732,6.7788,6.7864,6.7973,6.7941,6.7984,6.7983,6.8048,6.8177,6.8005,6.8006,6.8034,6.8336,6.836,6.8385,6.8163,6.8167,6.817,6.8331,0,6.7419,6.7577,6.7579,6.7725,6.7799,6.7773,6.7852,6.7899,6.7918,6.7985,6.8006,6.8083,6.8035,6.8061,6.8124,6.8148,6.8238,6.8137,6.8234,6.8237,6.8218,6.8413,6.844,6.8588,6.8351,6.8355,6.8358,0,6.762,6.768,6.7833,6.7884,6.7916,6.7987,6.8056,6.8121,6.8174,6.8183,6.8232,6.8222,6.8315,6.8248,6.8377,6.8309,6.8349,6.8367,6.8373,6.8381,6.8304,6.8425,6.8636,6.8658,6.839,6.8388,6.8385,0,6.7744,6.7864,6.7971,6.8001,6.8064,6.8114,6.8143,6.8192,6.8237,6.8299,6.8328,6.8401,6.844,6.8497,6.8507,6.8456,6.8637,6.857,6.8647,6.8647,6.8684,6.8681,6.8903,6.8713,6.8713,6.8712,6.8712,0,6.7915,6.801,6.8028,6.8093,6.8199,6.8201,6.8306,6.833,6.8375,6.8445,6.8428,6.8495,6.8504,6.8574,6.8582,6.8688,6.8707,6.8717,6.8717,6.8717,6.8716,6.8742,6.8732,6.8718,6.8717,6.8716,6.8715,0,6.8071,6.8087,6.8201,6.8251,6.8266,6.8342,6.8385,6.8448,6.8465,6.8555,6.8576,6.8604,6.8685,6.8701,6.8797,6.8803,6.8928,6.892,6.891,6.8908,6.8984,6.8976,6.9229,6.9262,6.9052,6.9054,6.9056,0,6.8178,6.825,6.8308,6.8353,6.8384,6.8458,6.8504,6.8511,6.856,6.8626,6.8682,6.8761,6.8824,6.8955,6.8984,6.9058,6.905,6.9134,6.9061,6.9059,6.905,6.9045,6.9052,6.9147,6.915,6.9151,6.9153,0,6.8367,6.8371,6.8438,6.8508,6.8563,6.8619,6.8672,6.8711,6.8724,6.878,6.8862,6.8912,6.901,6.9089,6.9162,6.9193,6.9176,6.9176,6.9197,6.9197,6.9188,6.9192,6.8946,6.917,6.9168,6.9167,6.9166,6.9165,6.8501,6.8563,6.8613,6.8689,6.8729,6.8779,6.884,6.8866,6.8934,6.9013,6.9014,6.9104,6.9156,6.9253,6.9289,6.936,6.9333,6.9365,6.9372,6.938,6.9386,6.9178,6.9374,6.9373,6.9373,6.9372,6.9372,0,6.8687,6.8718,6.8788,6.8862,6.8921,6.8899,6.8957,6.9008,6.9087,6.9137,6.92,6.9295,6.9372,6.9407,6.9483,6.9533,6.9527,6.9553,6.9548,6.9556,6.9406,6.9379,6.9557,6.9557,6.9556,6.9556,6.9556,6.9556,6.8791,6.8895,6.8906,6.9031,6.9062,6.9149,6.9183,6.923,6.9269,6.9376,6.9439,6.9462,6.9506,6.9585,6.9655,6.9664,6.9692,6.9721,6.9726,6.9585,6.9566,6.9548,6.9523,6.9728,6.9728,6.9869,6.9871,6.9872]},{"header":{"parameterUnit":"m.s-1","parameterCategory":1,"la1":30.2991,"la2":30.254,"lo1":-89.0895,"lo2":-89.0444,"dx":0.0017,"dy":0.0017,"nx":28,"ny":28,"refTime":"2022-11-26T09:00:00:Z","depth":0,"parameterNumber":3,"parameterNumberName":"V-component_of_WINDS"},"data":[0,0,0,0,0,0,0,0,0,0,0,0,0,0,0,0,0,0,0,0,0,0,0,0,0,0,0,0,0,0,0,0,0,0,0,0,0,0,0,0,0,0,0,0,0,0,0,0,0,0,0,0,0,0,0,0,0,0,1.8139,1.814,0,1.8254,1.8255,1.8257,1.8273,1.8272,1.8271,1.827,1.8389,1.8394,1.8398,0,0,0,0,0,0,0,0,0,0,0,0,0,1.7935,1.7939,1.8139,1.814,1.8142,1.8254,1.8255,1.8257,1.8273,1.8272,1.8271,1.8269,1.8388,1.8393,1.8398,0,0,0,0,0,0,0,0,0,0,0,0,0,1.8034,1.794,1.8139,1.8163,1.8167,1.8254,1.8255,1.8257,1.8273,1.8272,1.827,1.8269,1.8386,1.8393,1.8399,1.847,0,0,1.8418,1.8421,0,0,0,0,0,0,0,0,1.8029,1.8042,1.8158,1.8162,1.8166,1.8247,1.8227,1.8329,1.8274,1.8233,1.827,1.8268,1.8344,1.8353,1.8378,1.8475,1.848,1.8418,1.8422,1.8425,1.8427,0,0,0,0,0,0,0,1.8022,1.8037,1.8185,1.816,1.8165,1.8169,1.8182,1.8247,1.8296,1.8236,1.8238,1.8251,1.8345,1.8372,1.8381,1.8482,1.8418,1.8424,1.8428,1.843,1.8643,1.8644,0,0,0,0,0,0,1.801,1.8031,1.8181,1.8188,1.8092,1.8174,1.8188,1.8223,1.8295,1.8305,1.8252,1.8251,1.8362,1.8374,1.8386,1.8474,1.8425,1.8431,1.8434,1.8641,1.8643,1.8645,0,0,0,0,0,0,1.8006,1.8023,1.8176,1.811,1.813,1.8179,1.8219,1.8226,1.8253,1.8307,1.8316,1.8271,1.8362,1.8377,1.8448,1.8478,1.8434,1.8439,1.8638,1.8641,1.8644,1.8649,0,0,0,0,0,0,1.8,1.8022,1.8049,1.811,1.8133,1.8237,1.822,1.8229,1.8264,1.8263,1.8327,1.8336,1.8362,1.8439,1.8455,1.8486,1.8444,1.8636,1.864,1.8643,1.8647,1.8652,1.8657,0,0,0,0,0,1.7992,1.8046,1.805,1.8068,1.8168,1.8238,1.8251,1.8279,1.8266,1.8294,1.8329,1.8334,1.8472,1.8446,1.8464,1.8497,1.8634,1.8639,1.8643,1.8645,1.8651,1.8656,0,0,0,0,0,0,1.7987,1.8055,1.806,1.8135,1.8181,1.8241,1.8277,1.8285,1.8336,1.8334,1.8367,1.8381,1.8451,1.8481,1.8451,1.857,1.8552,1.856,1.8547,1.8554,1.8559,1.855,1.8449,0,0,0,0,0,1.7995,1.8046,1.8102,1.8163,1.8185,1.8227,1.8259,1.8276,1.8325,1.8345,1.8385,1.8433,1.8487,1.8522,1.8575,1.8651,1.8665,1.8683,1.8687,1.8691,1.8698,1.8741,1.8749,1.8659,1.8659,1.8659,0,0,1.8011,1.8054,1.8084,1.8163,1.82,1.8253,1.8243,1.8299,1.8339,1.8354,1.8424,1.8454,1.851,1.8584,1.8619,1.8612,1.8726,1.8697,1.8699,1.8704,1.8746,1.8754,1.8762,1.8662,1.8661,1.8661,0,0,1.8067,1.8105,1.816,1.8197,1.8254,1.8281,1.8294,1.8354,1.8375,1.8445,1.8457,1.8505,1.8597,1.8636,1.8668,1.8739,1.8746,1.8755,1.8781,1.8822,1.8829,1.8836,1.8861,1.887,1.8762,1.8762,1.8762,0,1.8081,1.816,1.8187,1.8243,1.8277,1.8292,1.8348,1.8383,1.8455,1.8478,1.8469,1.8585,1.8623,1.8707,1.8724,1.8749,1.8766,1.8748,1.8826,1.8833,1.8839,1.8864,1.8873,1.8762,1.8762,1.8762,1.8762,0,1.8173,1.8228,1.8266,1.8333,1.8372,1.8427,1.8464,1.8499,1.8513,1.8541,1.8613,1.866,1.8722,1.8743,1.8757,1.8829,1.8823,1.8819,1.8802,1.8848,1.8872,1.8882,1.8763,1.8763,1.8763,1.8763,0,0,1.8231,1.8312,1.8326,1.8356,1.842,1.8463,1.8519,1.8579,1.861,1.8658,1.8706,1.8784,1.8781,1.8817,1.8836,1.8872,1.8925,1.8864,1.8866,1.8874,1.9007,1.901,1.902,1.893,1.8932,1.8934,1.9003,0,1.8295,1.8395,1.8421,1.8506,1.8557,1.8572,1.8621,1.8665,1.8693,1.8741,1.8772,1.8826,1.8818,1.884,1.8877,1.8911,1.8953,1.8906,1.8976,1.8978,1.8962,1.9033,1.9036,1.9099,1.9012,1.9014,1.9015,0,1.8383,1.8433,1.8523,1.858,1.8602,1.8645,1.8703,1.8748,1.8799,1.8817,1.8857,1.8872,1.8931,1.8911,1.8993,1.8961,1.8991,1.9012,1.9016,1.9024,1.9,1.9043,1.912,1.9129,1.903,1.9029,1.9028,0,1.8416,1.8506,1.8571,1.8597,1.8665,1.8695,1.8725,1.8774,1.8808,1.8858,1.8881,1.8938,1.8969,1.9013,1.9043,1.9025,1.9123,1.9105,1.914,1.914,1.9161,1.9159,1.9244,1.9179,1.9179,1.9179,1.9179,0,1.8485,1.854,1.8587,1.8627,1.8689,1.8719,1.8779,1.8809,1.8853,1.89,1.8916,1.8959,1.8996,1.9045,1.9069,1.9134,1.9148,1.9164,1.917,1.9163,1.9161,1.9184,1.918,1.9182,1.9181,1.918,1.918,0,1.8533,1.8566,1.8639,1.8697,1.8712,1.8755,1.8805,1.8845,1.8873,1.8932,1.8948,1.8992,1.905,1.9085,1.9158,1.9175,1.9247,1.925,1.9229,1.9232,1.9265,1.9262,1.9368,1.9383,1.9308,1.9309,1.9309,0,1.8575,1.8617,1.868,1.8712,1.8742,1.8793,1.8829,1.8859,1.8895,1.8956,1.8989,1.9048,1.9097,1.9189,1.9228,1.9285,1.929,1.9324,1.9299,1.9291,1.9291,1.9289,1.9293,1.9328,1.9329,1.9329,1.933,0,1.8646,1.8661,1.871,1.8766,1.8808,1.8853,1.8898,1.8924,1.8962,1.9002,1.9062,1.9099,1.9174,1.9233,1.9293,1.9324,1.9333,1.9337,1.9348,1.9342,1.9328,1.9336,1.9241,1.9334,1.9334,1.9334,1.9333,1.9333,1.8693,1.8731,1.8781,1.8836,1.8873,1.8915,1.8955,1.8988,1.9038,1.9101,1.9116,1.9179,1.9228,1.9309,1.9342,1.9391,1.9386,1.9402,1.9406,1.941,1.9411,1.9319,1.9402,1.9402,1.9402,1.9402,1.9402,0,1.8765,1.8798,1.8848,1.8911,1.8954,1.8958,1.9009,1.9045,1.9099,1.9145,1.9192,1.926,1.9317,1.9361,1.9419,1.945,1.9456,1.9465,1.9463,1.947,1.9412,1.9397,1.9459,1.9459,1.9459,1.9459,1.9459,1.9459,1.8808,1.8873,1.8893,1.8977,1.9009,1.907,1.9099,1.9138,1.9174,1.9249,1.9296,1.9324,1.9369,1.943,1.9483,1.9494,1.9515,1.9523,1.9535,1.948,1.9474,1.9468,1.9454,1.9527,1.9527,1.9588,1.9589,1.9589]}]]